This demonstration page uses our WeatherBlox Daily Observations layout. Learn more.

Left ArrowRight Arrow

39.01783, -85.05884

Hourly Observations for October 22, 2015

Temp ( °F °C ) Dew Point ( °F °C ) Humidity (%) Winds ( mph kmh ) Pressure ( in mb ) Visibility ( mi km ) Precip ( " mm )
12:52 am 00:52 Mostly Cloudy 59 15 49 9.4 69 69 SSW 6 9 30.22 1023 10 16 N/A
1:52 am 01:52 Mostly Cloudy 58 14.4 49 9.4 72 72 SSW 8 13 30.20 1023 10 16 N/A
2:52 am 02:52 Mostly Cloudy 58 14.4 49 9.4 72 72 SSW 7 11 30.21 1023 10 16 N/A
3:52 am 03:52 Mostly Cloudy 59 15 49 9.4 69 69 SSW 7 11 30.20 1023 10 16 N/A
4:52 am 04:52 Partly Cloudy 58 14.4 49 9.4 72 72 SSW 7 11 30.19 1023 10 16 N/A
5:52 am 05:52 Mostly Clear 57 13.9 49 9.4 74 74 SSW 7 11 30.19 1023 10 16 N/A
6:52 am 06:52 Mostly Clear 57 13.9 50 10 78 78 SSW 7 11 30.22 1023 10 16 N/A
7:52 am 07:52 Mostly Clear 56 13.3 50 10 81 81 SSW 8 13 30.24 1024 10 16 N/A
8:52 am 08:52 Mostly Cloudy 58 14.4 50 10 75 75 SSW 7 11 30.25 1024 10 16 N/A
9:52 am 09:52 Mostly Cloudy 62 16.7 52 11.1 70 70 SW 9 15 30.25 1025 10 16 N/A
10:52 am 10:52 Mostly Cloudy 65 18.3 53 11.7 66 66 SW 10 17 30.25 1025 10 16 N/A
11:52 am 11:52 Mostly Cloudy 71 21.7 55 12.8 57 57 WSW 9 15 30.24 1024 10 16 N/A
12:52 pm 12:52 Partly Cloudy 75 23.9 56 13.3 52 52 SW 8 13 30.24 1024 10 16 N/A
1:52 pm 13:52 Partly Cloudy 77 25 56 13.3 48 48 VRB 6 9 30.21 1023 10 16 N/A
2:52 pm 14:52 Mostly Sunny 78 25.6 56 13.3 47 47 SW 9 15 30.19 1022 10 16 N/A
3:52 pm 15:52 Partly Cloudy 80 26.7 57 13.9 45 45 SW 7 11 30.17 1022 10 16 N/A
4:52 pm 16:52 Partly Cloudy 79 26.1 57 13.9 47 47 SW 6 9 30.16 1021 10 16 N/A
5:52 pm 17:52 Partly Cloudy 78 25.6 57 13.9 48 48 SW 5 7 30.16 1021 10 16 N/A
6:52 pm 18:52 Partly Cloudy 73 22.8 56 13.3 55 55 SSW 5 7 30.18 1022 10 16 N/A
7:52 pm 19:52 Mostly Cloudy 71 21.7 57 13.9 61 61 SSW 6 9 30.19 1022 10 16 N/A
8:52 pm 20:52 Mostly Clear 70 21.1 56 13.3 61 61 SSW 6 9 30.19 1022 10 16 N/A
9:52 pm 21:52 Mostly Cloudy 67 19.4 56 13.3 68 68 SSW 5 7 30.19 1022 10 16 N/A
10:52 pm 22:52 Partly Cloudy 67 19.4 56 13.3 68 68 WNW 5 7 30.22 1023 10 16 N/A
11:52 pm 23:52 Partly Cloudy 64 17.8 56 13.3 75 75 NNE 7 11 30.21 1023 10 16 N/A

Powered by AerisWeather